Weather History for York, PA

Change the Weather History Date:

Saturday, November 2, 2013

  Actual Average Record
Temperature  
Mean Temperature 54 °F -  
Max Temperature 64 °F 74 °F 78 °F (2001)
Min Temperature 44 °F 29 °F 25 °F (2010)
Degree Days  
Heating Degree Days 11    
Growing Degree Days 4 (Base 50)    
Moisture  
Dew Point 42 °F    
Average Humidity 69    
Maximum Humidity 93    
Minimum Humidity 43    
Precipitation  
Precipitation 0.00 in - - ()
Sea Level Pressure  
Sea Level Pressure 29.73 in    
Wind  
Wind Speed 3 mph (WNW)    
Max Wind Speed 16 mph    
Max Gust Speed 21 mph    
Visibility 10 miles    
Events      
Averages and records for this station are not official NWS values.
T = Trace of Precipitation, MM = Missing Value Source: NWS Daily Summary

Daily Weather History Graph

Daily Weather History Graph

Search for Another Location

Airport:

Trip Planner

Search our weather history database for the weather conditions in past years. The results will help you decide how hot, cold, wet, or windy it might be!

Date:

Astronomy

Nov. 02, 2013 Rise Set
Actual Time 7:37 AM EDT 6:03 PM EDT
Civil Twilight 7:09 AM EDT 6:31 PM EDT
Nautical Twilight 6:37 AM EDT 7:03 PM EDT
Astronomical Twilight 6:06 AM EDT 7:35 PM EDT
Moon 6:32 AM EDT (11/2) 5:33 PM EDT (11/2)
Length of Visible Light 11h 22m
Length of Day
10h 25m
Waning Crescent, 1% of the Moon is Illuminated
Nov 2
Waning Crescent
Nov 3
New
Nov 10
First Quarter
Nov 17
Full
Nov 25
Last Quarter

Hourly Weather History & Observations

Time (EDT) Temp. Dew Point Humidity Pressure Visibility Wind Dir Wind Speed Gust Speed Precip Events Conditions
12:53 AM 46.0 °F 43.0 °F 89% 29.68 in 10.0 mi Calm Calm - N/A   Scattered Clouds
1:53 AM 50.0 °F 46.0 °F 86% 29.69 in 10.0 mi Calm Calm - N/A   Overcast
2:53 AM 50.0 °F 46.9 °F 89% 29.67 in 10.0 mi Calm Calm - N/A   Overcast
3:53 AM 51.1 °F 46.9 °F 86% 29.67 in 10.0 mi Calm Calm - N/A   Overcast
4:53 AM 48.9 °F 46.0 °F 90% 29.67 in 10.0 mi Calm Calm - N/A   Overcast
5:53 AM 46.0 °F 43.0 °F 89% 29.68 in 10.0 mi Calm Calm - N/A   Scattered Clouds
6:53 AM 46.0 °F 43.0 °F 89% 29.69 in 10.0 mi Calm Calm - N/A   Overcast
7:53 AM 44.1 °F 42.1 °F 93% 29.70 in 9.0 mi Calm Calm - N/A   Mostly Cloudy
8:53 AM 48.0 °F 45.0 °F 89% 29.72 in 10.0 mi Calm Calm - N/A   Clear
9:53 AM 54.0 °F 46.9 °F 77% 29.73 in 10.0 mi Calm Calm - N/A   Scattered Clouds
10:53 AM 61.0 °F 46.9 °F 60% 29.70 in 10.0 mi West 6.9 mph - N/A   Mostly Cloudy
11:53 AM 63.0 °F 44.1 °F 50% 29.70 in 10.0 mi WNW 8.1 mph - N/A   Clear
12:53 PM 63.0 °F 43.0 °F 48% 29.70 in 10.0 mi NW 9.2 mph - N/A   Mostly Cloudy
1:53 PM 64.0 °F 41.0 °F 43% 29.70 in 10.0 mi NW 16.1 mph 20.7 mph N/A   Scattered Clouds
2:53 PM 60.1 °F 41.0 °F 49% 29.71 in 10.0 mi WNW 10.4 mph - N/A   Overcast
3:53 PM 59.0 °F 41.0 °F 51% 29.72 in 10.0 mi West 8.1 mph - 0.00 in   Overcast
4:53 PM 60.1 °F 37.9 °F 44% 29.73 in 10.0 mi WNW 9.2 mph - N/A   Mostly Cloudy
5:53 PM 57.0 °F 37.9 °F 49% 29.75 in 10.0 mi West 6.9 mph - N/A   Mostly Cloudy
6:53 PM 52.0 °F 37.0 °F 57% 29.79 in 10.0 mi West 4.6 mph - N/A   Clear
7:53 PM 50.0 °F 37.9 °F 63% 29.81 in 10.0 mi West 5.8 mph - N/A   Clear
8:53 PM 50.0 °F 37.0 °F 61% 29.83 in 10.0 mi WNW 4.6 mph - N/A   Clear
9:53 PM 51.1 °F 39.0 °F 63% 29.83 in 10.0 mi West 12.7 mph - N/A   Clear
10:53 PM 48.0 °F 37.9 °F 68% 29.86 in 10.0 mi WNW 5.8 mph - N/A   Mostly Cloudy
11:53 PM 46.9 °F 37.9 °F 71% 29.87 in 10.0 mi Calm Calm - N/A   Partly Cloudy